Showing default

IRIDIUM 123, 42804

Orbit data source: Space-Track

IRIDIUM 123, 42804 is a payload satellite owned by Iridium (US) in LEO that was launched on Sun, 25 Jun 2017 UTC via an FALCON 9 launch vehicle from the Air Force Western Test Range (AFWTR). Payload-class satellites include a variety of spacecraft equipped with specific instruments for various scientific and technological missions. These include communications satellites like Starlink; space stations such as the ISS; scientific satellites like the Hubble; Earth observation satellites from companies like Planet Labs, Umbra, and HawkEye 360; GPS; miniature CubeSats for education and research; and military/defense satellites.

Loading next visibility...
Identifier
42804, 2017-039B
Orbit
LEO
Country
Flag of USUS
Related business
Manufacturer
OATK SSG Gilbert
Mission
Operational Commercial Communications
Bus & Motor
ELITEBUS, Unknown motor
Mass
860 kg wet, 700 kg dry
Launch date (UTC)
2017-06-25 (8 years ago)
Launch vehicle
FALCON 9
Launch site
Air Force Western Test Range (AFWTR)
Object type
Payload
Rocket body
Debris
Shape & HBR
Trap Box + 2 Pan, 4.7 m
Radar Cross Section
14.423 m², Large (>1 m²)

Expand to show TLE details & history
Last TLE update: 16 hours ago

TLE from 16 hours ago
0 IRIDIUM 123
1 42804U 17039B   25260.62646983  .00000009  00000-0 -39413-5 0  9992
2 42804  86.3926 107.6010 0002314  89.6710 270.4751 14.34217613430881
Epoch: 2025-09-17T15:02Z
TLE epoch observation values (Epoch: 2025-09-17T15:02:06.993Z)
Latitude
-0.00001°
Longitude
-114.72785°
Altitude
780.705 km
Speed
7.463 km/s
True Right ascension
07h 10m 24s
True Declination
0° 00' 00"
Sunlit
Object was in daylight at epoch
Visualization orbit readout
Latitude
Unknown
Longitude
Unknown
Altitude
Unknown
Speed
Unknown
Apparent Right ascension
Unknown
Apparent Declination
Unknown
Sunlit
N/A
Visualization observer readout
Local Sidereal Time
00:19:58
Azimuth
Unknown
Elevation
Unknown
Doppler factor
Unknown
Orbital elements
Apogee altitude
776.287 km
Perigee altitude
772.977 km
Semi-major axis
7,152.769 km
Eccentricity
0.00023
Inclination
86.3926°
RAAN
107.601°
Arg. of periapsis
89.671°
True anomaly
270.44858°
Mean anomaly
270.4751°
Eccentric anomaly
270.46184°
Mean motion
3.58783 °/min
Orbital period
100.34 mins
BSTAR
-0.0000039413
Loading maneuver chart data...
Computing Atmospheric mass density...
Loading historical data...
Loading historical data...
Loading historical data...
Loading historical data...
Loading historical data...
Loading historical data...
Loading historical data...

Documentation

Showing up to 5 results
|